GW4212 Weather Reports


Display with metric or nautical units.
time (UTC)temp
F
wind
direction
speed
MPH
gust
MPH
rain 1hr
in
rain 24hr
in
rain mn
in
humidity
%
barometer
mb
20260508090923 71 0.0 0.0 0.00 0.00 0.00 99 1014.5
20260508085905 70 0.0 0.0 0.00 0.00 0.00 99 1014.7
20260508084752 69 0.0 0.0 0.00 0.00 0.00 99 1014.4
20260508083741 70 0.0 0.0 0.00 0.00 0.00 99 1014.2
20260508082731 70 0.0 0.0 0.00 0.00 0.00 99 1014.1
20260508081719 72 0.0 0.0 0.00 0.00 0.00 99 1013.7
20260508080713 74 0.0 0.0 0.00 0.00 0.00 99 1013.9
20260508075657 69 0.0 0.0 0.00 0.00 0.00 99 1013.9
20260508074545 76 0.0 0.0 0.00 0.00 0.00 99 1013.8
20260508073533 74 0.0 0.0 0.00 0.00 0.00 99 1013.8
20260508072522 68 0.0 0.0 0.00 0.00 0.00 99 1013.7
20260508071410 70 0.0 0.0 0.00 0.00 0.00 99 1013.6
20260508070405 70 0.0 0.0 0.00 0.00 0.00 99 1013.6
20260508065348 64 0.0 0.0 0.00 0.00 0.00 99 1013.6
20260508064230 63 0.0 0.0 0.00 0.00 0.00 99 1013.4
20260508063219 63 0.0 0.0 0.00 0.00 0.00 99 1013.5
20260508062207 62 0.0 0.0 0.00 0.00 0.00 99 1013.6
20260508061156 62 0.0 0.0 0.00 0.00 0.00 99 1013.6
20260508060150 63 0.0 0.0 0.00 0.00 0.00 99 1013.2
20260508055134 61 0.0 0.0 0.00 0.00 0.00 99 1013.1
20260508054123 60 0.0 0.0 0.00 0.00 0.00 99 1013.0
20260508053005 60 0.0 0.0 0.00 0.00 0.00 99 1013.2
20260508051953 60 0.0 0.0 0.00 0.00 0.00 99 1013.0
20260508050942 60 0.0 0.0 0.00 0.00 0.00 99 1012.8
20260508045937 60 0.0 0.0 0.00 0.00 0.00 99 1012.6
20260508044920 60 0.0 0.0 0.00 0.00 0.00 99 1012.4
20260508043908 59 0.0 0.0 0.00 0.00 0.00 99 1012.3
20260508042857 60 0.0 0.0 0.00 0.00 0.00 99 1012.4
20260508041846 60 0.0 0.0 0.00 0.00 0.00 99 1012.4
20260508040835 60 0.0 0.0 0.00 0.00 0.00 99 1012.2
20260508035828 60 0.0 0.0 0.00 0.00 0.00 99 1012.2
20260508034811 59 0.0 0.0 0.00 0.00 0.00 99 1012.5
20260508033801 60 0.0 0.0 0.00 0.00 0.00 99 1012.5
20260508032749 60 0.0 0.0 0.00 0.00 0.00 99 1012.5
20260508031737 59 0.0 0.0 0.00 0.00 0.00 99 1012.5
20260508030726 59 0.0 0.0 0.00 0.00 0.00 99 1012.7
20260508025731 60 0.0 0.0 0.00 0.00 0.00 99 1012.6
20260508021804 60 0.0 0.0 0.00 0.00 0.00 99 1012.6
20260508020754 60 0.0 0.0 0.00 0.00 0.00 99 1012.8
20260508015637 60 0.0 0.0 0.00 0.00 0.00 99 1012.8
20260508014625 60 0.0 0.0 0.00 0.00 0.00 99 1012.9
20260508013618 61 0.0 0.0 0.00 0.00 0.00 99 1012.9
20260508012603 60 0.0 0.0 0.00 0.00 0.00 99 1013.1
20260508011551 60 0.0 0.0 0.00 0.00 0.00 99 1013.3
20260508010539 60 0.0 0.0 0.00 0.00 0.00 99 1013.5
20260508005529 59 0.0 0.0 0.00 0.00 0.00 99 1013.7
20260508004517 59 0.0 0.0 0.00 0.00 0.00 99 1013.6
20260508003511 60 0.0 0.0 0.00 0.00 0.00 99 1013.6
20260508002454 60 0.0 0.0 0.00 0.00 0.00 99 1013.6
20260508001443 61 0.0 0.0 0.00 0.00 0.00 99 1013.6
20260508000415 61 0.0 0.0 0.00 0.00 0.00 99 1013.5
20260507235403 61 0.0 0.0 0.00 0.00 0.00 99 1013.6
20260507234353 61 0.0 0.0 0.00 0.00 0.00 99 1013.7
20260507233346 61 0.0 0.0 0.00 0.00 0.00 99 1013.7
20260507232329 61 0.0 0.0 0.00 0.00 0.00 99 1013.6
20260507231301 61 0.0 0.0 0.00 0.00 0.00 99 1013.6
20260507230250 61 0.0 0.0 0.00 0.00 0.00 99 1013.8
20260507225238 61 0.0 0.0 0.00 0.00 0.00 99 1013.8
20260507224226 61 0.0 0.0 0.00 0.00 0.00 99 1013.9
20260507223221 61 0.0 0.0 0.00 0.00 0.00 99 1013.8
20260507222205 61 0.0 0.0 0.00 0.00 0.00 99 1013.8
20260507221152 60 0.0 0.0 0.00 0.00 0.00 99 1013.8
20260507220142 61 0.0 0.0 0.00 0.00 0.00 99 1013.9
20260507215130 60 0.0 0.0 0.00 0.00 0.00 99 1014.0
20260507214120 60 0.0 0.0 0.00 0.00 0.00 99 1014.2
20260507213007 61 0.0 0.0 0.00 0.00 0.00 99 1014.3
20260507211950 61 0.0 0.0 0.00 0.00 0.00 99 1014.2
20260507210939 60 0.0 0.0 0.00 0.00 0.00 99 1014.0
20260507205927 61 0.0 0.0 0.00 0.00 0.00 99 1014.0
20260507204916 60 0.0 0.0 0.00 0.00 0.00 99 1013.8
20260507203905 59 0.0 0.0 0.00 0.00 0.00 99 1013.5
20260507202858 61 0.0 0.0 0.00 0.00 0.00 99 1013.5
20260507201843 61 0.0 0.0 0.00 0.00 0.00 99 1013.4
20260507200833 61 0.0 0.0 0.00 0.00 0.00 99 1013.3
20260507195714 61 0.0 0.0 0.00 0.00 0.00 99 1013.4
20260507194703 61 0.0 0.0 0.00 0.00 0.00 99 1013.4
20260507193652 60 0.0 0.0 0.00 0.00 0.00 99 1013.5
20260507192545 60 0.0 0.0 0.00 0.00 0.00 99 1013.4
20260507191511 61 0.0 0.0 0.00 0.00 0.00 99 1013.4
20260507190500 62 0.0 0.0 0.00 0.00 0.00 99 1013.3
20260507185450 61 0.0 0.0 0.00 0.00 0.00 99 1013.3
20260507184438 60 0.0 0.0 0.00 0.00 0.00 99 1013.4
20260507183427 59 0.0 0.0 0.00 0.00 0.00 99 1013.4
20260507182422 60 0.0 0.0 0.00 0.00 0.00 99 1013.4
20260507181404 60 0.0 0.0 0.00 0.00 0.00 99 1013.3
20260507180251 61 0.0 0.0 0.00 0.00 0.00 99 1013.0
20260507175241 61 0.0 0.0 0.00 0.00 0.00 99 1012.8
20260507174230 60 0.0 0.0 0.00 0.00 0.00 99 1012.7
20260507173218 60 0.0 0.0 0.00 0.00 0.00 99 1012.7
20260507172212 60 0.0 0.0 0.00 0.00 0.00 99 1012.3
20260507171156 60 0.0 0.0 0.00 0.00 0.00 99 1012.3
20260507170044 61 0.0 0.0 0.00 0.00 0.00 99 1012.0
20260507165033 62 0.0 0.0 0.00 0.00 0.00 99 1011.9
20260507164022 61 0.0 0.0 0.00 0.00 0.00 99 1012.0
20260507163010 61 0.0 0.0 0.00 0.00 0.00 99 1011.7
20260507162005 61 0.0 0.0 0.00 0.00 0.00 99 1011.9
20260507160948 62 0.0 0.0 0.00 0.00 0.00 99 1011.5
20260507155936 62 0.0 0.0 0.00 0.00 0.00 99 1011.5
20260507154925 64 0.0 0.0 0.00 0.00 0.00 99 1010.9
20260507153913 65 0.0 0.0 0.00 0.00 0.00 99 1010.9
20260507152845 66 0.0 0.0 0.00 0.00 0.00 99 1010.8
20260507151840 66 0.0 0.0 0.00 0.00 0.00 99 1010.7
20260507150823 67 0.0 0.0 0.00 0.00 0.00 99 1010.7
20260507145811 67 0.0 0.0 0.00 0.00 0.00 99 1010.7
20260507144743 67 0.0 0.0 0.00 0.00 0.00 99 1010.7
20260507143731 68 0.0 0.0 0.00 0.00 0.00 99 1010.8
20260507142720 67 0.0 0.0 0.00 0.00 0.00 99 1010.9
20260507141714 67 0.0 0.0 0.00 0.00 0.00 99 1011.1
20260507140658 67 0.0 0.0 0.00 0.00 0.00 99 1011.1
20260507135646 67 0.0 0.0 0.00 0.00 0.00 99 1011.3
20260507134636 68 0.0 0.0 0.00 0.00 0.00 99 1011.2
20260507133624 68 0.0 0.0 0.00 0.00 0.00 99 1011.3
20260507132613 68 0.0 0.0 0.00 0.00 0.00 99 1011.4
20260507131608 68 0.0 0.0 0.00 0.00 0.00 99 1011.6
20260507130551 69 0.0 0.0 0.00 0.00 0.00 99 1011.7
20260507125540 69 0.0 0.0 0.00 0.00 0.00 99 1011.8
20260507124512 68 0.0 0.0 0.00 0.00 0.00 99 1011.9
20260507123501 69 0.0 0.0 0.00 0.00 0.00 99 1012.0
20260507122449 68 0.0 0.0 0.00 0.00 0.00 99 1012.1
20260507121443 68 0.0 0.0 0.00 0.00 0.00 99 1012.3
20260507120426 68 0.0 0.0 0.00 0.00 0.00 99 1012.4
20260507115416 71 0.0 0.0 0.00 0.00 0.00 99 1012.3
20260507114404 70 0.0 0.0 0.00 0.00 0.00 99 1012.5
20260507113352 69 0.0 0.0 0.00 0.00 0.00 99 1012.6
20260507112324 70 0.0 0.0 0.00 0.00 0.00 99 1012.6
20260507111318 70 0.0 0.0 0.00 0.00 0.00 99 1012.6
20260507110302 70 0.0 0.0 0.00 0.00 0.00 99 1012.6
20260507105250 71 0.0 0.0 0.00 0.00 0.00 99 1012.7
20260507104222 70 0.0 0.0 0.00 0.00 0.00 99 1012.8
20260507103211 70 0.0 0.0 0.00 0.00 0.00 99 1012.9
20260507102159 70 0.0 0.0 0.00 0.00 0.00 99 1012.8
20260507101153 71 0.0 0.0 0.00 0.00 0.00 99 1012.8
20260507100137 71 0.0 0.0 0.00 0.00 0.00 99 1012.8
20260507095126 71 0.0 0.0 0.00 0.00 0.00 99 1013.0
20260507094114 72 0.0 0.0 0.00 0.00 0.00 99 1013.1
20260507093102 71 0.0 0.0 0.00 0.00 0.00 99 1013.2
20260507092051 72 0.0 0.0 0.00 0.00 0.00 99 1013.0